Location: Bonn
(50.7330°N, 7.1000°E)
Time: 07:28:23
(UTC+02:00)

Cosmos 1933 Rocket - Visible Passes

Search period start: 26 March 2017 00:00
Search period end: 05 April 2017 01:00
Orbit: 606 x 631 km, 82.5° (Epoch: 24 March)

Date Brightness Start Highest point End Pass type
(mag) Time Alt. Az. Time Alt. Az. Time Alt. Az.
26 Mar 5.2 23:11:48 10° N 23:14:05 27° NNE 23:14:05 27° NNE visible
27 Mar 6.3 00:50:15 10° NW 00:51:14 14° NW 00:51:14 14° NW visible
27 Mar 5.8 21:53:17 10° NE 21:54:17 11° NE 21:54:17 11° NE visible
27 Mar 5.1 23:28:57 10° N 23:31:26 33° N 23:31:26 33° N visible
28 Mar 6.6 01:08:33 10° NW 01:08:35 10° NW 01:08:35 10° NW visible
28 Mar 5.4 22:09:16 10° NNE 22:11:39 17° NE 22:11:39 17° NE visible
28 Mar 5.2 23:46:16 10° NNW 23:48:48 33° NNW 23:48:48 33° NNW visible
29 Mar 4.9 22:26:00 10° N 22:29:02 27° NE 22:29:02 27° NE visible
30 Mar 5.5 00:03:45 10° NNW 00:06:12 27° NW 00:06:12 27° NW visible
30 Mar 4.3 22:42:59 10° N 22:46:26 42° NE 22:46:26 42° NE visible
31 Mar 5.9 00:21:30 10° NW 00:23:36 19° WNW 00:23:36 19° WNW visible
31 Mar 5.6 21:24:18 10° NE 21:25:56 12° ENE 21:26:42 11° ENE visible
31 Mar 3.9 23:00:09 10° N 23:03:51 61° N 23:03:51 61° N visible
01 Apr 6.3 00:39:50 10° NW 00:41:01 12° WNW 00:41:01 12° WNW visible
01 Apr 5.1 21:40:25 10° NNE 21:43:33 19° ENE 21:44:08 18° ENE visible
01 Apr 4.2 23:17:28 10° NNW 23:21:18 54° WNW 23:21:18 54° WNW visible
02 Apr 4.5 21:57:10 10° N 22:01:04 30° ENE 22:01:36 29° E visible
02 Apr 4.9 23:34:58 10° NNW 23:38:46 34° W 23:38:46 34° W visible
03 Apr 3.8 22:14:10 10° N 22:18:29 49° ENE 22:19:05 45° ESE visible
03 Apr 5.6 23:52:44 10° NW 23:56:01 21° W 23:56:15 20° W visible
04 Apr 5.6 20:55:20 10° NE 20:57:11 12° ENE 20:59:01 10° E visible
04 Apr 3.4 22:31:20 10° N 22:35:48 85° E 22:36:35 60° SSE visible
05 Apr 6.2 00:11:09 10° WNW 00:12:58 12° W 00:13:45 12° W visible
